Flag for Canada Weather past 2 weeks in Corner Brook, Newfoundland and Labrador, Canada

Now
9 °F

Snow flurries. Mostly cloudy.


Feels Like: -10 °F
Forecast: -1 / 28 °F
Wind: 17 mph from West

Location: Deer Lake

Current Time: Mar 3, 2015 at 9:35:35 PM

Latest Report: Mar 3, 2015 at 8:30 PM


Visibility: 3 mi

Pressure: 29.81 "Hg

Humidity: 78%

Dew point: 3 °F

Location of Corner BrookLocation

Historic Weather in Corner Brook — Graph

°F

Corner Brook temperature yesterday

Maximum temperature yesterday: 25 °F (at 2:30 PM)
Minimum temperature yesterday: -2 °F (at 3:30 AM)
Average temperature yesterday: 16 °F

Past Weeks' High & Low Weather Summary

 TemperatureHumidityPressure
High36 °F (Feb 20, 12:30 PM)100% (Feb 20, 7:21 AM)30.41 "Hg (Feb 20, 7:21 AM)
Low-13 °F (Feb 18, 7:30 AM)38% (Feb 18, 1:30 PM)28.60 "Hg (Feb 16, 7:30 PM)
Average16 °F79%29.84 "Hg
* Reported Feb 16 7:30 PM — Mar 3 7:30 PM, Corner Brook, Weather by CustomWeather, © 2015

Note: Actual official high and low records may vary slightly from our data, if they occured in-between our weather recording intervals... More about our weather records

Advertising

Corner Brook weather history for previous 24 hours

 ConditionsComfort  
Time TempWeatherWind HumidityBarometerVisibility
7:30 PM
Tue, Mar 3
9 °FSnow flurries. Passing clouds.13 mph78%29.77 "Hg3 mi
6:30 PM9 °FSnow flurries. Overcast.13 mph78%29.72 "Hg3 mi
5:30 PM10 °FSnow flurries. Overcast.14 mph72%29.67 "Hg3 mi
4:30 PM10 °FSnow flurries. Partly sunny.17 mph72%29.62 "Hg3 mi
3:30 PM12 °FSnow flurries. Partly sunny.16 mph73%29.57 "Hg3 mi
2:30 PM14 °FSnow flurries. Partly sunny.17 mph67%29.52 "Hg4 mi
1:30 PM16 °FLight snow. Overcast.10 mph67%29.48 "Hg3 mi
12:30 PM19 °FLight snow. Mostly cloudy.16 mph63%29.44 "Hg3 mi
11:30 AM19 °FLight snow. Overcast.25 mph68%29.40 "Hg3 mi
10:30 AM19 °FLight snow. Overcast.16 mph73%29.34 "Hg2 mi
10:25 AM19 °FLight snow. Overcast.20 mph73%29.34 "Hg2 mi
9:30 AM19 °FLight snow. Mostly cloudy.16 mph79%29.31 "Hg2 mi
8:30 AM19 °FLight snow. Ice fog.9 mph86%29.24 "Hg1 mi
7:30 AM19 °FSnow flurries. Overcast.8 mph79%29.18 "Hg2 mi
6:30 AM19 °FSnow flurries. Overcast.13 mph79%29.13 "Hg5 mi
5:30 AM21 °FSnow flurries. Mostly cloudy.18 mph80%29.08 "Hg5 mi
4:30 AM21 °FLight snow. Overcast.14 mph80%29.04 "Hg6 mi
3:30 AM23 °FLight snow. Overcast.14 mph74%29.00 "Hg4 mi
2:30 AM23 °FLight snow. Mostly cloudy.9 mph80%28.98 "Hg2 mi
1:30 AM23 °FLight snow. Mostly cloudy.10 mph86%28.98 "Hg2 mi
12:30 AM23 °FLight snow. Mostly cloudy.9 mph93%29.00 "Hg1 mi
11:30 PM
Mon, Mar 2
25 °FLight snow. Mostly cloudy.5 mph86%29.04 "Hg1 mi
10:30 PM25 °FLight snow. Mostly cloudy.8 mph86%29.08 "Hg1 mi
9:30 PM25 °FLight snow. Mostly cloudy.16 mph93%29.12 "Hg1 mi
Weather by CustomWeather, © 2015

See weather overviewHow to use our weather pages